Date String (YYYY-MM-DD hh:mm:ss) UTC,Instrument flags,absolute air pressure of the measurement (hPa),sample flow rate (lpm),inlet stack bypass flow (lpm),air temperature of the measurement (°C),ambient temperature measured by the external sensor (°C),aerosol sample conditioner tube jacket temperature (°C),OPC LED temperature (°C),internal box temperature (°C),relative humidity of the measurement (%),span deviation,mass concentration of particles derived from Lorenz-Mie calculation of OPC scattering (μg/m³),mass concentration of particles derived from Lorenz-Mie calculation of OPC scattering (μg/m³),mass concentration of particles derived from Lorenz-Mie calculation of OPC scattering (μg/m³)
DateTimeUTC,F1_M11,P_M11,Q1_M11,Q2_M11,T1_M11,T2_M11,T3_M11,T4_M11,T5_M11,U1_M11,ZSPAN_M11,X0_M11,X2_M11,X1_M11
2023-09-18 01:00:00,SystemResetWarning,0831.7,5.00,000.00,027.9,026.8,000.0,036.2,029.7,19.2,0000.0,0007.55,0003.51,0003.04
2023-09-18 01:01:00,SystemResetWarning,0831.7,5.01,000.00,028.0,026.8,000.0,036.2,029.7,18.9,0000.0,0007.49,0003.48,0003.03
2023-09-18 01:02:00,SystemResetWarning,0831.7,4.99,000.00,027.9,025.5,000.0,036.1,029.3,18.3,0000.0,0007.41,0003.44,0003.01
2023-09-18 01:03:00,SystemResetWarning,0831.7,5.00,000.00,027.8,023.8,000.0,036.1,028.8,18.5,0000.0,0007.46,0003.42,0003.00
2023-09-18 01:04:00,SystemResetWarning,0831.7,5.01,000.00,027.6,023.6,000.0,036.0,028.8,18.5,0000.0,0007.30,0003.39,0002.99
2023-09-18 01:05:00,SystemResetWarning,0831.7,4.98,000.00,027.5,023.9,000.0,036.0,028.8,18.4,0000.0,0007.00,0003.38,0003.00
2023-09-18 01:06:00,SystemResetWarning,0831.7,5.00,000.00,027.5,024.4,000.0,036.0,028.9,18.3,0000.0,0005.94,0003.36,0003.01
2023-09-18 01:07:00,SystemResetWarning,0831.7,5.01,000.00,027.5,024.8,000.0,036.0,029.0,18.5,0000.0,0005.24,0003.33,0003.00
2023-09-18 01:08:00,SystemResetWarning,0831.7,5.01,000.00,027.5,025.2,000.0,036.0,029.1,18.5,0000.0,0005.00,0003.28,0002.99
2023-09-18 01:09:00,SystemResetWarning,0831.9,4.99,000.00,027.6,025.6,000.0,036.0,029.2,18.6,0000.0,0006.22,0003.25,0002.99
2023-09-18 01:10:00,SystemResetWarning,0832.3,5.00,000.00,027.6,025.9,000.0,036.0,029.3,19.0,0000.0,0006.52,0003.24,0002.99
2023-09-18 01:11:00,SystemResetWarning,0832.1,4.99,000.00,027.6,026.2,000.0,036.0,029.4,19.0,0000.0,0007.32,0003.26,0003.01
2023-09-18 01:12:00,SystemResetWarning,0831.7,5.01,000.00,027.7,026.4,000.0,036.0,029.4,18.9,0000.0,0007.94,0003.29,0003.02
2023-09-18 01:13:00,SystemResetWarning,0831.8,5.00,000.00,027.7,026.6,000.0,036.0,029.5,18.8,0000.0,0008.13,0003.32,0003.04
2023-09-18 01:14:00,SystemResetWarning,0831.8,5.00,000.00,027.8,026.7,000.0,036.1,029.6,18.7,0000.0,0008.29,0003.35,0003.04
2023-09-18 01:15:00,SystemResetWarning,0831.8,4.99,000.00,027.8,026.9,000.0,036.1,029.6,18.5,0000.0,0008.33,0003.36,0003.04
2023-09-18 01:16:00,SystemResetWarning,0831.8,5.00,000.00,027.9,027.0,000.0,036.1,029.7,18.3,0000.0,0008.26,0003.33,0003.02
2023-09-18 01:17:00,SystemResetWarning,0832.0,4.99,000.00,027.9,026.3,000.0,036.1,029.5,18.1,0000.0,0008.26,0003.34,0003.02
2023-09-18 01:18:00,SystemResetWarning,0832.2,5.00,000.00,027.8,024.8,000.0,036.0,029.2,17.8,0000.0,0008.27,0003.34,0003.01
2023-09-18 01:19:00,SystemResetWarning,0831.9,5.01,000.00,027.7,024.5,000.0,036.0,029.1,17.6,0000.0,0008.27,0003.33,0003.01
2023-09-18 01:20:00,SystemResetWarning,0832.0,4.99,000.00,027.7,024.7,000.0,036.0,029.1,17.6,0000.0,0007.66,0003.32,0002.99
2023-09-18 01:21:00,SystemResetWarning,0832.3,5.00,000.00,027.7,025.1,000.0,036.0,029.1,17.6,0000.0,0007.31,0003.33,0002.98
2023-09-18 01:22:00,SystemResetWarning,0832.4,5.01,000.00,027.7,025.4,000.0,036.0,029.2,17.6,0000.0,0006.97,0003.33,0002.99
2023-09-18 01:23:00,SystemResetWarning,0832.3,5.01,000.00,027.7,025.7,000.0,036.1,029.3,17.5,0000.0,0005.66,0003.33,0002.98
2023-09-18 01:24:00,SystemResetWarning,0832.2,5.00,000.00,027.7,026.0,000.0,036.1,029.4,17.5,0000.0,0005.29,0003.29,0002.95
2023-09-18 01:25:00,SystemResetWarning,0832.1,5.01,000.00,027.8,026.2,000.0,036.1,029.4,17.5,0000.0,0004.93,0003.27,0002.93
2023-09-18 01:26:00,SystemResetWarning,0831.7,5.00,000.00,027.8,026.5,000.0,036.1,029.5,17.4,0000.0,0004.68,0003.26,0002.93
2023-09-18 01:27:00,SystemResetWarning,0831.8,5.00,000.00,027.8,026.6,000.0,036.1,029.6,17.3,0000.0,0004.69,0003.26,0002.94
2023-09-18 01:28:00,SystemResetWarning,0831.8,5.00,000.00,027.9,026.8,000.0,036.1,029.6,17.2,0000.0,0004.64,0003.25,0002.93
2023-09-18 01:29:00,SystemResetWarning,0831.8,5.00,000.00,027.9,026.9,000.0,036.2,029.7,17.2,0000.0,0004.83,0003.27,0002.93
2023-09-18 01:30:00,SystemResetWarning,0831.8,4.99,000.00,028.0,026.7,000.0,036.2,029.7,17.1,0000.0,0005.23,0003.28,0002.92
2023-09-18 01:31:00,SystemResetWarning,0832.0,4.99,000.00,027.9,025.3,000.0,036.1,029.2,17.4,0000.0,0005.37,0003.28,0002.91
2023-09-18 01:32:00,SystemResetWarning,0831.9,5.02,000.00,027.8,024.6,000.0,036.1,029.1,17.6,0000.0,0005.47,0003.29,0002.91
2023-09-18 01:33:00,SystemResetWarning,0832.4,4.99,000.00,027.7,024.7,000.0,036.1,029.1,18.2,0000.0,0005.53,0003.29,0002.89
2023-09-18 01:34:00,SystemResetWarning,0832.0,5.00,000.00,027.7,024.9,000.0,036.1,029.1,18.6,0000.0,0005.38,0003.27,0002.90
2023-09-18 01:35:00,SystemResetWarning,0832.0,4.99,000.00,027.7,025.3,000.0,036.1,029.2,18.7,0000.0,0005.35,0003.27,0002.90
2023-09-18 01:36:00,SystemResetWarning,0832.0,5.00,000.00,027.7,025.6,000.0,036.1,029.3,18.7,0000.0,0005.45,0003.28,0002.93
2023-09-18 01:37:00,SystemResetWarning,0831.9,5.01,000.00,027.7,025.9,000.0,036.1,029.4,18.7,0000.0,0006.14,0003.32,0002.96
2023-09-18 01:38:00,SystemResetWarning,0831.8,5.00,000.00,027.8,026.1,000.0,036.1,029.5,18.7,0000.0,0006.63,0003.35,0002.97
2023-09-18 01:39:00,SystemResetWarning,0831.8,5.00,000.00,027.8,026.4,000.0,036.1,029.5,18.8,0000.0,0007.01,0003.35,0002.99
2023-09-18 01:40:00,SystemResetWarning,0831.9,4.98,000.00,027.9,026.5,000.0,036.2,029.6,18.6,0000.0,0007.08,0003.34,0003.00
2023-09-18 01:41:00,SystemResetWarning,0831.9,5.00,000.00,027.9,026.7,000.0,036.2,029.6,18.8,0000.0,0007.45,0003.35,0003.01
2023-09-18 01:42:00,SystemResetWarning,0831.8,5.01,000.00,027.9,026.8,000.0,036.2,029.7,18.7,0000.0,0007.41,0003.36,0003.02
2023-09-18 01:43:00,SystemResetWarning,0831.8,5.00,000.00,028.0,027.0,000.0,036.2,029.8,18.6,0000.0,0007.39,0003.38,0003.04
2023-09-18 01:44:00,SystemResetWarning,0831.9,4.99,000.00,028.0,027.0,000.0,036.3,029.8,18.6,0000.0,0007.32,0003.36,0003.04
2023-09-18 01:45:00,SystemResetWarning,0831.9,5.00,000.00,028.0,025.8,000.0,036.2,029.5,18.5,0000.0,0007.46,0003.38,0003.05
2023-09-18 01:46:00,SystemResetWarning,0831.9,5.01,000.00,027.9,024.6,000.0,036.2,029.2,18.6,0000.0,0007.70,0003.42,0003.07
2023-09-18 01:47:00,SystemResetWarning,0832.1,5.01,000.00,027.8,024.5,000.0,036.1,029.2,18.6,0000.0,0007.70,0003.44,0003.08
2023-09-18 01:48:00,SystemResetWarning,0832.2,5.01,000.00,027.8,024.8,000.0,036.1,029.2,18.7,0000.0,0007.38,0003.43,0003.07
2023-09-18 01:49:00,SystemResetWarning,0831.8,4.99,000.00,027.7,025.1,000.0,036.1,029.2,18.8,0000.0,0007.13,0003.45,0003.08
2023-09-18 01:50:00,SystemResetWarning,0831.8,5.00,000.00,027.8,025.4,000.0,036.2,029.3,18.9,0000.0,0006.81,0003.48,0003.09
2023-09-18 01:51:00,SystemResetWarning,0831.8,5.00,000.00,027.8,025.7,000.0,036.2,029.4,18.9,0000.0,0006.61,0003.49,0003.10
2023-09-18 01:52:00,SystemResetWarning,0831.9,5.00,000.00,027.8,026.0,000.0,036.2,029.4,18.9,0000.0,0005.84,0003.51,0003.11
2023-09-18 01:53:00,SystemResetWarning,0831.9,4.99,000.00,027.8,026.2,000.0,036.2,029.5,18.9,0000.0,0005.93,0003.52,0003.13
2023-09-18 01:54:00,SystemResetWarning,0831.9,5.00,000.00,027.9,026.4,000.0,036.2,029.6,18.9,0000.0,0006.38,0003.53,0003.14
2023-09-18 01:55:00,SystemResetWarning,0831.9,4.99,000.00,027.9,026.6,000.0,036.2,029.6,18.7,0000.0,0006.53,0003.55,0003.14
2023-09-18 01:56:00,SystemResetWarning,0831.9,5.00,000.00,027.9,026.7,000.0,036.2,029.7,18.8,0000.0,0006.39,0003.55,0003.13
2023-09-18 01:57:00,SystemResetWarning,0831.9,5.02,000.00,028.0,026.9,000.0,036.2,029.7,18.9,0000.0,0006.24,0003.53,0003.13
2023-09-18 01:58:00,SystemResetWarning,0831.9,5.00,000.00,028.0,027.0,000.0,036.3,029.8,18.8,0000.0,0006.52,0003.51,0003.13
2023-09-18 01:59:00,SystemResetWarning,0831.9,4.99,000.00,028.1,027.0,000.0,036.3,029.8,18.7,0000.0,0006.72,0003.50,0003.13
